Regional Weather Roundup
Issued by NWS Midland/Odessa, TX

Skip options and go directly to product.
Home | Oldest Version | Next Version | Current Version | All | Text Only | Save Text | Print | Product List | Glossary On

Skip product version selection by date and time.   
520
ASUS44 KMAF 041101
RWRMAF
MIDLAND AREA WEATHER ROUNDUP
NATIONAL WEATHER SERVICE MIDLAND TX
600 AM CDT SAT JUL 04 2015

...IN SOUTHWEST TEXAS AND SOUTHEAST NEW MEXICO...

CITY           SKY/WX    TMP DP  RH WIND       PRES   REMARKS
ALPINE         CLOUDY    68  61  79 CALM      30.13S
ANDREWS        FAIR      67  62  85 SE5       30.04F
ARTESIA        PTCLDY    68  61  77 CALM      30.06S
BIG SPRING     CLEAR     74  65  74 SE8       30.05S
CARLSBAD       PTCLDY    69  64  84 CALM      30.02S
DRYDEN           N/A     74  68  81 VRB5      29.96S
FORT STOCKTON  PTCLDY    72  65  78 SE7       30.01S
GUAD PASS      MOCLDY    66  60  81 NE17      30.14F
HOBBS          PTCLDY    64  63  94 CALM      30.08R
MARFA          CLOUDY   N/A N/A N/A N5        30.12R
MIDLAND AIRPK  CLEAR     73  64  72 SE6       30.03S
MIDLAND INTL   CLEAR     71  64  78 SE6       30.03S
ODESSA         CLEAR     71  64  78 SE8       30.04R
PECOS          PTCLDY    73  63  71 E8        29.99R
PRESIDIO       FAIR      79  64  58 NE10      29.96R
SEMINOLE       CLEAR     67  60  78 CALM      30.06S
SNYDER         MOCLDY    69  64  84 S5        30.03S
WINK           CLEAR     71  63  75 E6        29.99F
$$
...OTHER STATIONS IN TEXAS...

CITY           SKY/WX    TMP DP  RH WIND       PRES   REMARKS
ABILENE        PTCLDY    74  67  78 S6        30.00R
AMARILLO       CLEAR     61  57  87 S5        30.05S
AUSTIN         PTCLDY    75  75 100 S7        29.99S
BROWNSVILLE    PTCLDY    76  74  93 SE6       29.95S
CORPUS CHRISTI PTCLDY    79  77  94 S8        29.96R
DALLAS FTW     MOCLDY    79  70  74 S10       29.94R
DEL RIO        MOCLDY    75  72  90 E9        29.93S
EL PASO        MOCLDY    79  59  50 SE7       30.03S
HOUSTON INT    MOCLDY    79  76  90 CALM      30.00R
LUBBOCK        MOCLDY    70  62  76 SW3       30.04R
SAN ANGELO     PTCLDY    73  68  84 CALM      30.00S
SAN ANTONIO    CLOUDY    78  73  84 S8        30.00R
WACO           PTCLDY    75  72  90 S8        29.97R
WICHITA FALLS  NOT AVBL
$$
...OTHER LOCATIONS IN NEW MEXICO...

CITY           SKY/WX    TMP DP  RH WIND       PRES   REMARKS
ALAMAGORDO     PTCLDY    68  59  73 N5        30.06S
ALBUQUERQUE    MOCLDY    71  55  56 VRB5      30.15R
CANNON AFB     PTCLDY    65  60  84 SW3       30.09F
CLOVIS         CLOUDY    66  57  72 W8          N/A
HOLLOMAN AFB   PTCLDY    66  61  83 NW3       30.04S
ROSWELL        PTCLDY    67  61  81 NE6       30.06R
RUIDOSO        PTCLDY    57  54  88 SW6       30.27S
SANTA FE       MOCLDY    63  52  67 E7        30.21F
TRUTH OR CONSE MOCLDY    69  60  73 NW5       30.09S
TUCUMCARI      PTCLDY    64  57  78 NW9       30.08S
$$

USA.gov is the U.S. government's official web portal to all federal, state and local government web resources and services.